This is the latest recevied weather packets stored in our database for station/object K8RRT. If no packets are shown the sender has not sent any weather packets the latest 10 day(s).
| Time | Temp. | Humidity | Pressure | Rain* | Wind** | Luminosity | Snow |
|---|---|---|---|---|---|---|---|
| 1777934778 | 24.44° C | 52% | 1004.7 hPa | 0 mm | - | 150 W/m² | - |
| 1777934475 | 24.44° C | 52% | 1004.6 hPa | 0 mm | - | 141 W/m² | - |
| 1777934172 | 24.44° C | 53% | 1004.6 hPa | 0 mm | - | 144 W/m² | - |
| 1777933868 | 24.44° C | 53% | 1004.7 hPa | 0 mm | - | 141 W/m² | - |
| 1777933565 | 24.44° C | 52% | 1004.9 hPa | 0 mm | - | 107 W/m² | - |
| 1777933263 | 24.44° C | 51% | 1004.8 hPa | 0 mm | - | 95 W/m² | - |
| 1777932960 | 24.44° C | 51% | 1004.7 hPa | 0 mm | - | 123 W/m² | - |
| 1777932656 | 24.44° C | 50% | 1005 hPa | 0 mm | - | 97 W/m² | - |
| 1777932353 | 25° C | 49% | 1004.9 hPa | 0 mm | - | 173 W/m² | - |
| 1777932050 | 25.56° C | 50% | 1005.1 hPa | 0 mm | - | 319 W/m² | - |
| 1777931746 | 25° C | 51% | 1005 hPa | 0 mm | - | 372 W/m² | - |
| 1777931444 | 25° C | 51% | 1005 hPa | 0 mm | - | 337 W/m² | - |
| 1777931139 | 24.44° C | 53% | 1004.7 hPa | 0 mm | - | 107 W/m² | - |
| 1777930836 | 25.56° C | 54% | 1004.8 hPa | 0 mm | - | 275 W/m² | - |
| 1777930533 | 24.44° C | 56% | 1005.2 hPa | 0 mm | - | 412 W/m² | - |
| 1777930230 | 24.44° C | 56% | 1004.9 hPa | 0 mm | - | 183 W/m² | - |
| 1777929926 | 24.44° C | 54% | 1005.2 hPa | 0 mm | - | 255 W/m² | - |
| 1777929623 | 25° C | 52% | 1005.1 hPa | 0 mm | - | 283 W/m² | - |
| 1777929320 | 24.44° C | 54% | 1005.2 hPa | 0 mm | - | 481 W/m² | - |
| 1777929017 | 24.44° C | 53% | 1005.2 hPa | 0 mm | - | 280 W/m² | - |
| 1777928714 | 24.44° C | 54% | 1005.1 hPa | 0 mm | - | 425 W/m² | - |
| 1777928411 | 23.89° C | 55% | 1005.5 hPa | 0 mm | - | 477 W/m² | - |
| 1777928109 | 23.89° C | 56% | 1005.4 hPa | 0 mm | - | 529 W/m² | - |
| 1777927807 | 23.89° C | 55% | 1005.3 hPa | 0 mm | - | 539 W/m² | - |
| 1777927504 | 23.89° C | 55% | 1005.5 hPa | 0 mm | - | 445 W/m² | - |
* Rain latest hour (hover to see other rain measurements)
** Current wind speed in m/s (hover to see current wind gust speed)